| time (UTC) | temp F | wind direction | speed knots | gust knots | rain 1hr in | rain 24hr in | rain mn in | humidity % | barometer mb |
| 20260902150956 | 74 | 108 | 0.0 | 0.9 | 0.00 | 0.06 | 0.06 | 80 | 1016.0 |
| 20260902150452 | 74 | 107 | 0.9 | 1.7 | 0.00 | 0.06 | 0.06 | 80 | 1015.9 |
| 20260902145952 | 73 | 102 | 0.0 | 1.7 | 0.00 | 0.06 | 0.06 | 81 | 1016.1 |
| 20260902145448 | 73 | 117 | 0.9 | 1.7 | 0.00 | 0.06 | 0.06 | 82 | 1015.9 |
| 20260902144947 | 73 | 101 | 0.9 | 0.9 | 0.00 | 0.06 | 0.06 | 83 | 1016.1 |
| 20260902144444 | 73 | 71 | 0.0 | 1.7 | 0.00 | 0.06 | 0.06 | 82 | 1015.9 |
| 20260902143938 | 73 | 82 | 0.0 | 0.9 | 0.00 | 0.06 | 0.06 | 82 | 1016.0 |
| 20260902143434 | 72 | 84 | 0.0 | 0.9 | 0.00 | 0.06 | 0.06 | 83 | 1016.1 |
| 20260902142928 | 71 | 111 | 0.0 | 0.9 | 0.00 | 0.06 | 0.06 | 85 | 1016.1 |
| 20260902142425 | 71 | 144 | 0.9 | 1.7 | 0.00 | 0.06 | 0.06 | 85 | 1016.2 |
| 20260902141920 | 71 | 98 | 0.9 | 1.7 | 0.00 | 0.06 | 0.06 | 85 | 1016.2 |
| 20260902141415 | 72 | 97 | 1.7 | 1.7 | 0.00 | 0.06 | 0.06 | 84 | 1016.2 |
| 20260902140914 | 71 | 78 | 0.0 | 0.9 | 0.00 | 0.06 | 0.06 | 86 | 1016.3 |
| 20260902140410 | 70 | 325 | 0.9 | 0.9 | 0.00 | 0.06 | 0.06 | 87 | 1016.2 |
| 20260902135909 | 69 | 88 | 0.0 | 0.9 | 0.00 | 0.06 | 0.06 | 88 | 1016.2 |
| 20260902135406 | 69 | 87 | 0.0 | 2.6 | 0.00 | 0.06 | 0.06 | 88 | 1016.3 |
| 20260902134904 | 69 | 104 | 0.0 | 0.9 | 0.00 | 0.06 | 0.06 | 88 | 1016.2 |
| 20260902134400 | 69 | 20 | 0.9 | 0.9 | 0.00 | 0.06 | 0.06 | 89 | 1016.1 |
| 20260902133854 | 68 | 72 | 0.0 | 1.7 | 0.00 | 0.06 | 0.06 | 91 | 1016.2 |
| 20260902133349 | 68 | 97 | 0.0 | 0.0 | 0.00 | 0.06 | 0.06 | 91 | 1016.5 |
| 20260902132844 | 67 | 92 | 0.0 | 0.0 | 0.00 | 0.06 | 0.06 | 93 | 1016.4 |
| 20260902132339 | 67 | 58 | 0.0 | 0.9 | 0.00 | 0.06 | 0.06 | 94 | 1016.2 |
| 20260902131835 | 66 | 15 | 0.0 | 1.7 | 0.00 | 0.06 | 0.06 | 95 | 1016.1 |
| 20260902131332 | 65 | 87 | 0.0 | 0.9 | 0.00 | 0.06 | 0.06 | 96 | 1016.1 |
| 20260902130830 | 65 | 62 | 0.9 | 1.7 | 0.00 | 0.06 | 0.06 | 96 | 1016.2 |
| 20260902130327 | 65 | 88 | 0.9 | 0.9 | 0.00 | 0.06 | 0.06 | 96 | 1016.2 |
| 20260902125821 | 65 | 101 | 0.0 | 4.3 | 0.00 | 0.06 | 0.06 | 96 | 1016.1 |
| 20260902125317 | 65 | 125 | 0.0 | 0.9 | 0.00 | 0.06 | 0.06 | 97 | 1016.4 |
| 20260902124813 | 64 | 80 | 0.0 | 0.9 | 0.00 | 0.06 | 0.06 | 97 | 1016.4 |
| 20260902124309 | 64 | 126 | 0.0 | 0.9 | 0.00 | 0.06 | 0.06 | 97 | 1016.1 |
| 20260902123804 | 64 | 137 | 0.0 | 0.0 | 0.00 | 0.06 | 0.06 | 97 | 1016.3 |
| 20260902123300 | 64 | 56 | 0.0 | 0.9 | 0.00 | 0.06 | 0.06 | 97 | 1016.2 |
| 20260902122759 | 64 | 1 | 1.7 | 2.6 | 0.00 | 0.06 | 0.06 | 97 | 1016.1 |
| 20260902122255 | 64 | 355 | 0.0 | 1.7 | 0.00 | 0.06 | 0.06 | 97 | 1016.2 |
| 20260902121755 | 64 | 75 | 0.0 | 2.6 | 0.00 | 0.06 | 0.06 | 97 | 1016.4 |
| 20260902121250 | 64 | 17 | 0.9 | 1.7 | 0.00 | 0.06 | 0.06 | 97 | 1016.4 |
| 20260902120745 | 64 | 112 | 0.0 | 1.7 | 0.00 | 0.06 | 0.06 | 97 | 1016.4 |
| 20260902120241 | 64 | 90 | 0.0 | 0.9 | 0.00 | 0.06 | 0.06 | 97 | 1016.1 |
| 20260902115736 | 64 | 5 | 0.9 | 4.3 | 0.00 | 0.06 | 0.06 | 97 | 1016.3 |
| 20260902115232 | 64 | 35 | 0.9 | 0.9 | 0.00 | 0.06 | 0.06 | 97 | 1016.3 |
| 20260902114728 | 64 | 35 | 0.0 | 2.6 | 0.00 | 0.06 | 0.06 | 97 | 1016.4 |
| 20260902114224 | 64 | 135 | 0.0 | 0.0 | 0.00 | 0.06 | 0.06 | 97 | 1016.4 |
| 20260902113723 | 64 | 133 | 0.0 | 0.9 | 0.00 | 0.06 | 0.06 | 97 | 1016.5 |
| 20260902113219 | 64 | 91 | 0.0 | 2.6 | 0.00 | 0.06 | 0.06 | 97 | 1017.0 |
| 20260902112713 | 64 | 103 | 0.0 | 1.7 | 0.00 | 0.06 | 0.06 | 97 | 1017.0 |
| 20260902112210 | 64 | 144 | 0.9 | 1.7 | 0.00 | 0.06 | 0.06 | 97 | 1016.8 |
| 20260902111705 | 64 | 127 | 0.0 | 0.9 | 0.00 | 0.06 | 0.06 | 97 | 1017.0 |
| 20260902111202 | 64 | 122 | 0.0 | 2.6 | 0.00 | 0.06 | 0.06 | 98 | 1017.1 |
| 20260902110657 | 64 | 99 | 0.0 | 1.7 | 0.00 | 0.06 | 0.06 | 98 | 1017.2 |
| 20260902110153 | 64 | 149 | 0.0 | 2.6 | 0.00 | 0.06 | 0.06 | 98 | 1016.9 |
| 20260902105652 | 64 | 161 | 0.9 | 1.7 | 0.00 | 0.06 | 0.06 | 98 | 1017.0 |
| 20260902105148 | 64 | 106 | 0.0 | 4.3 | 0.00 | 0.06 | 0.06 | 98 | 1016.8 |
| 20260902104643 | 64 | 196 | 1.7 | 4.3 | 0.00 | 0.06 | 0.06 | 98 | 1017.0 |
| 20260902104138 | 64 | 159 | 1.7 | 2.6 | 0.00 | 0.06 | 0.06 | 98 | 1016.8 |
| 20260902103637 | 64 | 165 | 0.0 | 2.6 | 0.00 | 0.06 | 0.06 | 98 | 1016.8 |
| 20260902103133 | 64 | 171 | 0.9 | 2.6 | 0.00 | 0.06 | 0.06 | 98 | 1016.5 |
| 20260902102629 | 64 | 177 | 0.9 | 4.3 | 0.00 | 0.06 | 0.06 | 98 | 1016.8 |
| 20260902102126 | 64 | 146 | 0.9 | 1.7 | 0.00 | 0.06 | 0.06 | 98 | 1016.6 |
| 20260902101621 | 64 | 246 | 0.0 | 0.9 | 0.00 | 0.06 | 0.06 | 98 | 1016.5 |
| 20260902101120 | 64 | 167 | 0.0 | 1.7 | 0.00 | 0.06 | 0.06 | 98 | 1016.5 |
| 20260902100615 | 64 | 206 | 0.0 | 0.9 | 0.00 | 0.06 | 0.06 | 98 | 1016.0 |
| 20260902100109 | 64 | 155 | 0.0 | 0.9 | 0.00 | 0.06 | 0.06 | 98 | 1016.1 |
| 20260902095609 | 64 | 117 | 0.0 | 1.7 | 0.00 | 0.06 | 0.06 | 98 | 1016.0 |
| 20260902095103 | 64 | 113 | 0.0 | 0.9 | 0.00 | 0.06 | 0.06 | 98 | 1016.1 |
| 20260902094558 | 64 | 121 | 0.0 | 5.2 | 0.00 | 0.06 | 0.06 | 98 | 1015.9 |
| 20260902094054 | 64 | 117 | 1.7 | 2.6 | 0.00 | 0.06 | 0.06 | 98 | 1015.8 |
| 20260902093553 | 64 | 136 | 0.0 | 0.9 | 0.00 | 0.06 | 0.06 | 98 | 1015.8 |
| 20260902093048 | 64 | 134 | 0.0 | 1.7 | 0.00 | 0.06 | 0.06 | 98 | 1015.6 |
| 20260902092538 | 64 | 27 | 0.0 | 2.6 | 0.00 | 0.06 | 0.06 | 98 | 1015.1 |
| 20260902092032 | 64 | 115 | 0.0 | 0.9 | 0.00 | 0.06 | 0.06 | 98 | 1014.7 |
| 20260902091528 | 64 | 241 | 0.9 | 2.6 | 0.00 | 0.06 | 0.06 | 98 | 1014.3 |
| 20260902091023 | 64 | 357 | 1.7 | 4.3 | 0.00 | 0.06 | 0.06 | 98 | 1014.5 |
| 20260902090519 | 64 | 284 | 0.9 | 4.3 | 0.00 | 0.06 | 0.06 | 98 | 1014.5 |
| 20260902090018 | 64 | 337 | 1.7 | 7.0 | 0.00 | 0.06 | 0.06 | 98 | 1014.4 |
| 20260902085519 | 64 | 13 | 0.9 | 4.3 | 0.00 | 0.06 | 0.06 | 98 | 1015.0 |
| 20260902085014 | 64 | 113 | 0.0 | 1.7 | 0.00 | 0.06 | 0.06 | 98 | 1015.0 |
| 20260902084510 | 64 | 104 | 0.0 | 0.0 | 0.00 | 0.06 | 0.06 | 98 | 1015.2 |
| 20260902084005 | 65 | 116 | 0.0 | 0.0 | 0.00 | 0.06 | 0.06 | 98 | 1015.5 |
| 20260902083501 | 65 | 4 | 0.9 | 1.7 | 0.00 | 0.06 | 0.06 | 98 | 1015.8 |
| 20260902082955 | 65 | 88 | 0.0 | 1.7 | 0.00 | 0.06 | 0.06 | 98 | 1015.6 |
| 20260902082450 | 65 | 55 | 0.9 | 2.6 | 0.00 | 0.06 | 0.06 | 98 | 1016.2 |
| 20260902081947 | 65 | 296 | 0.9 | 4.3 | 0.00 | 0.06 | 0.06 | 97 | 1015.8 |
| 20260902081443 | 65 | 45 | 0.0 | 2.6 | 0.00 | 0.06 | 0.06 | 97 | 1016.2 |
| 20260902080938 | 65 | 151 | 0.0 | 4.3 | 0.00 | 0.06 | 0.06 | 97 | 1016.3 |
| 20260902080434 | 65 | 121 | 0.0 | 1.7 | 0.00 | 0.06 | 0.06 | 97 | 1016.6 |
| 20260902075933 | 65 | 340 | 0.0 | 1.7 | 0.00 | 0.06 | 0.06 | 97 | 1016.2 |
| 20260902075430 | 65 | 130 | 0.0 | 1.7 | 0.00 | 0.06 | 0.06 | 96 | 1015.9 |
| 20260902074925 | 66 | 72 | 0.9 | 1.7 | 0.07 | 0.06 | 0.06 | 96 | 1015.4 |
| 20260902074420 | 66 | 107 | 0.0 | 1.7 | 0.07 | 0.06 | 0.06 | 96 | 1015.1 |
| 20260902073915 | 66 | 117 | 0.0 | 1.7 | 0.00 | 0.05 | 0.05 | 95 | 1015.6 |
| 20260902073411 | 66 | 110 | 0.0 | 0.9 | 0.05 | 0.05 | 0.05 | 94 | 1016.0 |
| 20260902072907 | 66 | 35 | 0.9 | 0.9 | 0.07 | 0.04 | 0.04 | 93 | 1016.6 |
| 20260902072403 | 67 | 32 | 1.7 | 2.6 | 0.14 | 0.04 | 0.04 | 92 | 1016.9 |
| 20260902071859 | 67 | 325 | 0.0 | 2.6 | 0.07 | 0.03 | 0.03 | 91 | 1017.3 |
| 20260902071358 | 67 | 75 | 0.9 | 2.6 | 0.05 | 0.02 | 0.02 | 90 | 1017.7 |
| 20260902070855 | 68 | 172 | 0.9 | 1.7 | 0.05 | 0.02 | 0.02 | 90 | 1018.0 |
| 20260902070350 | 69 | 77 | 0.9 | 4.3 | 0.07 | 0.01 | 0.01 | 88 | 1018.5 |
| 20260902065848 | 69 | 118 | 1.7 | 7.0 | 0.07 | 0.01 | 0.01 | 87 | 1018.5 |
| 20260902065344 | 69 | 156 | 0.9 | 1.7 | 0.00 | 0.00 | 0.00 | 87 | 1018.9 |
| 20260902064839 | 71 | 150 | 0.0 | 0.0 | 0.00 | 0.00 | 0.00 | 83 | 1018.0 |
| 20260902064335 | 71 | 236 | 0.0 | 0.0 | 0.00 | 0.00 | 0.00 | 79 | 1018.2 |
| 20260902063830 | 72 | 196 | 0.9 | 1.7 | 0.00 | 0.00 | 0.00 | 76 | 1018.2 |
| 20260902063325 | 73 | 227 | 0.0 | 0.9 | 0.00 | 0.00 | 0.00 | 74 | 1018.0 |
| 20260902062819 | 73 | 202 | 0.0 | 0.9 | 0.00 | 0.00 | 0.00 | 71 | 1017.5 |
| 20260902062314 | 73 | 259 | 0.9 | 5.2 | 0.00 | 0.00 | 0.00 | 71 | 1017.0 |
| 20260902061813 | 73 | 258 | 0.9 | 2.6 | 0.00 | 0.00 | 0.00 | 71 | 1016.5 |
| 20260902061309 | 73 | 314 | 0.9 | 1.7 | 0.00 | 0.00 | 0.00 | 72 | 1016.4 |
| 20260902060805 | 72 | 298 | 0.9 | 1.7 | 0.00 | 0.00 | 0.00 | 72 | 1016.0 |
| 20260902060301 | 72 | 295 | 0.9 | 1.7 | 0.00 | 0.00 | 0.00 | 72 | 1016.1 |
| 20260902055755 | 72 | 245 | 0.0 | 0.0 | 0.00 | 0.00 | 0.00 | 73 | 1015.7 |
| 20260902055247 | 72 | 307 | 0.9 | 0.9 | 0.00 | 0.00 | 0.00 | 74 | 1015.7 |
| 20260902054747 | 72 | 254 | 0.0 | 0.0 | 0.00 | 0.00 | 0.00 | 74 | 1016.1 |
| 20260902054242 | 72 | 132 | 0.0 | 0.9 | 0.00 | 0.00 | 0.00 | 73 | 1016.3 |
| 20260902053737 | 72 | 31 | 0.0 | 0.9 | 0.00 | 0.00 | 0.00 | 72 | 1016.3 |
| 20260902053236 | 72 | 57 | 0.0 | 0.9 | 0.00 | 0.00 | 0.00 | 71 | 1016.4 |
| 20260902052731 | 72 | 168 | 0.0 | 0.0 | 0.00 | 0.00 | 0.00 | 70 | 1017.0 |
| 20260902052227 | 73 | 177 | 0.0 | 0.0 | 0.00 | 0.00 | 0.00 | 69 | 1016.8 |
| 20260902051726 | 73 | 230 | 0.0 | 0.0 | 0.00 | 0.00 | 0.00 | 68 | 1016.7 |
| 20260902051220 | 73 | 246 | 0.0 | 1.7 | 0.00 | 0.00 | 0.00 | 68 | 1016.7 |
| 20260902050715 | 73 | 318 | 0.0 | 1.7 | 0.00 | 0.00 | 0.00 | 67 | 1016.6 |
| 20260902050211 | 73 | 167 | 0.0 | 0.0 | 0.00 | 0.00 | 0.00 | 67 | 1016.5 |
| 20260902045711 | 73 | 253 | 0.9 | 0.9 | 0.00 | 0.00 | 0.00 | 66 | 1016.3 |
| 20260902045207 | 74 | 186 | 0.0 | 0.9 | 0.00 | 0.00 | 0.00 | 65 | 1016.3 |
| 20260902044702 | 74 | 313 | 0.9 | 0.9 | 0.00 | 0.00 | 0.00 | 65 | 1016.3 |
| 20260902044158 | 73 | 295 | 0.9 | 1.7 | 0.00 | 0.00 | 0.00 | 66 | 1016.2 |
| 20260902043653 | 73 | 262 | 0.0 | 0.0 | 0.00 | 0.00 | 0.00 | 67 | 1016.3 |
| 20260902043148 | 73 | 240 | 0.0 | 0.9 | 0.00 | 0.00 | 0.00 | 67 | 1016.1 |
| 20260902042647 | 73 | 197 | 0.0 | 0.0 | 0.00 | 0.00 | 0.00 | 67 | 1016.0 |
| 20260902042143 | 73 | 247 | 0.0 | 0.0 | 0.00 | 0.00 | 0.00 | 67 | 1016.0 |
| 20260902041642 | 73 | 260 | 0.0 | 0.0 | 0.00 | 0.00 | 0.00 | 66 | 1016.3 |
| 20260902041137 | 73 | 266 | 0.0 | 1.7 | 0.00 | 0.00 | 0.00 | 66 | 1016.3 |
| 20260902040636 | 73 | 159 | 0.0 | 0.9 | 0.00 | 0.00 | 0.00 | 66 | 1015.9 |
| 20260902040132 | 73 | 219 | 0.0 | 2.6 | 0.00 | 0.00 | 0.00 | 68 | 1015.8 |
| 20260902035630 | 73 | 298 | 0.9 | 1.7 | 0.00 | 0.00 | 0.00 | 66 | 1015.7 |
| 20260902035126 | 73 | 271 | 0.9 | 0.9 | 0.00 | 0.00 | 0.00 | 67 | 1016.4 |
| 20260902034625 | 73 | 245 | 0.0 | 0.0 | 0.00 | 0.00 | 0.00 | 66 | 1016.2 |
| 20260902034119 | 73 | 231 | 0.0 | 0.0 | 0.00 | 0.00 | 0.00 | 66 | 1016.6 |
| 20260902033618 | 74 | 235 | 0.0 | 0.0 | 0.00 | 0.00 | 0.00 | 67 | 1016.6 |
| 20260902033114 | 74 | 257 | 0.0 | 0.9 | 0.00 | 0.00 | 0.00 | 64 | 1016.7 |
| 20260902032612 | 74 | 241 | 0.0 | 0.0 | 0.00 | 0.00 | 0.00 | 65 | 1016.8 |
| 20260902032107 | 74 | 232 | 0.0 | 0.0 | 0.00 | 0.00 | 0.00 | 66 | 1016.8 |
| 20260902031601 | 74 | 342 | 0.0 | 1.7 | 0.00 | 0.00 | 0.00 | 65 | 1016.9 |
| 20260902031057 | 74 | 266 | 0.0 | 0.9 | 0.00 | 0.00 | 0.00 | 67 | 1016.7 |
| 20260902030552 | 74 | 250 | 0.0 | 0.0 | 0.00 | 0.00 | 0.00 | 67 | 1016.8 |
| 20260902030052 | 74 | 279 | 0.9 | 0.9 | 0.00 | 0.00 | 0.00 | 66 | 1016.5 |
| 20260902025552 | 74 | 244 | 0.0 | 0.0 | 0.00 | 0.00 | 0.00 | 66 | 1016.6 |
| 20260902025047 | 75 | 244 | 0.0 | 0.0 | 0.00 | 0.00 | 0.00 | 65 | 1016.5 |
| 20260902024543 | 75 | 245 | 0.0 | 0.0 | 0.00 | 0.00 | 0.00 | 65 | 1016.6 |
| 20260902024043 | 75 | 252 | 0.0 | 0.0 | 0.00 | 0.00 | 0.00 | 65 | 1016.3 |
| 20260902023538 | 75 | 201 | 0.0 | 0.0 | 0.00 | 0.00 | 0.00 | 66 | 1016.4 |
| 20260902023033 | 75 | 282 | 0.0 | 0.0 | 0.00 | 0.00 | 0.00 | 64 | 1016.5 |
| 20260902022527 | 75 | 211 | 0.0 | 0.0 | 0.00 | 0.00 | 0.00 | 65 | 1016.4 |
| 20260902022023 | 75 | 211 | 0.0 | 0.0 | 0.00 | 0.00 | 0.00 | 64 | 1016.5 |
| 20260902021519 | 75 | 211 | 0.0 | 0.0 | 0.00 | 0.00 | 0.00 | 63 | 1016.5 |
| 20260902021014 | 75 | 209 | 0.0 | 0.0 | 0.00 | 0.00 | 0.00 | 64 | 1016.5 |
| 20260902020509 | 75 | 221 | 0.0 | 0.0 | 0.00 | 0.00 | 0.00 | 65 | 1016.5 |
| 20260902020005 | 76 | 228 | 0.0 | 0.0 | 0.00 | 0.00 | 0.00 | 64 | 1016.6 |
| 20260902015501 | 76 | 244 | 0.0 | 0.0 | 0.00 | 0.00 | 0.00 | 65 | 1016.5 |
| 20260902014956 | 76 | 221 | 0.0 | 0.0 | 0.00 | 0.00 | 0.00 | 65 | 1016.2 |
| 20260902014452 | 76 | 196 | 0.0 | 0.0 | 0.00 | 0.00 | 0.00 | 64 | 1016.3 |
| 20260902013952 | 77 | 195 | 0.0 | 0.0 | 0.00 | 0.00 | 0.00 | 63 | 1016.2 |
| 20260902013447 | 77 | 211 | 0.0 | 0.0 | 0.00 | 0.00 | 0.00 | 63 | 1016.2 |
| 20260902012942 | 77 | 210 | 0.0 | 0.0 | 0.00 | 0.00 | 0.00 | 63 | 1016.1 |
| 20260902012438 | 78 | 216 | 0.0 | 0.0 | 0.00 | 0.00 | 0.00 | 63 | 1016.2 |
| 20260902011933 | 78 | 216 | 0.0 | 0.0 | 0.00 | 0.00 | 0.00 | 62 | 1016.1 |
| 20260902011428 | 78 | 191 | 0.0 | 0.0 | 0.00 | 0.00 | 0.00 | 62 | 1016.2 |
| 20260902010928 | 78 | 216 | 0.0 | 0.0 | 0.00 | 0.00 | 0.00 | 62 | 1015.9 |
| 20260902010423 | 78 | 208 | 0.0 | 0.0 | 0.00 | 0.00 | 0.00 | 62 | 1015.9 |
| 20260902005922 | 79 | 202 | 0.0 | 0.0 | 0.00 | 0.00 | 0.00 | 61 | 1016.0 |
| 20260902005421 | 79 | 220 | 0.0 | 0.0 | 0.00 | 0.00 | 0.00 | 60 | 1015.9 |
| 20260902004918 | 79 | 220 | 0.0 | 0.0 | 0.00 | 0.00 | 0.00 | 61 | 1016.0 |
| 20260902004417 | 79 | 219 | 0.0 | 0.0 | 0.00 | 0.00 | 0.00 | 63 | 1016.0 |
| 20260902003912 | 79 | 215 | 0.0 | 0.0 | 0.00 | 0.00 | 0.00 | 64 | 1016.0 |
| 20260902003407 | 80 | 217 | 0.0 | 0.0 | 0.00 | 0.00 | 0.00 | 66 | 1016.1 |
| 20260902002903 | 80 | 221 | 0.0 | 0.0 | 0.00 | 0.00 | 0.00 | 66 | 1016.0 |
| 20260902002403 | 80 | 206 | 0.0 | 0.0 | 0.00 | 0.00 | 0.00 | 64 | 1016.1 |
| 20260902001857 | 81 | 213 | 0.0 | 0.9 | 0.00 | 0.00 | 0.00 | 63 | 1016.0 |
| 20260902001352 | 81 | 217 | 0.0 | 0.0 | 0.00 | 0.00 | 0.00 | 63 | 1016.1 |
| 20260902000847 | 81 | 205 | 0.0 | 0.0 | 0.00 | 0.00 | 0.00 | 62 | 1016.1 |
| 20260902000344 | 82 | 233 | 0.0 | 0.9 | 0.00 | 0.00 | 0.00 | 62 | 1016.4 |
| 20260901235837 | 82 | 198 | 0.0 | 0.9 | 0.00 | 0.00 | 0.00 | 61 | 1016.1 |
| 20260901235337 | 82 | 232 | 0.0 | 0.9 | 0.00 | 0.00 | 0.00 | 61 | 1016.2 |
| 20260901234832 | 82 | 186 | 0.9 | 0.9 | 0.00 | 0.00 | 0.00 | 60 | 1016.2 |
| 20260901234326 | 82 | 200 | 0.0 | 0.9 | 0.00 | 0.00 | 0.00 | 60 | 1016.3 |
| 20260901233822 | 82 | 217 | 0.0 | 0.0 | 0.00 | 0.00 | 0.00 | 60 | 1016.0 |
| 20260901233317 | 82 | 201 | 0.0 | 0.9 | 0.00 | 0.00 | 0.00 | 59 | 1016.2 |
| 20260901232813 | 83 | 218 | 1.7 | 2.6 | 0.00 | 0.00 | 0.00 | 58 | 1016.4 |
| 20260901232307 | 83 | 213 | 1.7 | 2.6 | 0.00 | 0.00 | 0.00 | 58 | 1016.3 |
| 20260901231804 | 83 | 246 | 1.7 | 2.6 | 0.00 | 0.00 | 0.00 | 57 | 1016.3 |
| 20260901231300 | 83 | 241 | 2.6 | 4.3 | 0.00 | 0.00 | 0.00 | 57 | 1016.3 |
| 20260901230756 | 83 | 189 | 0.9 | 1.7 | 0.00 | 0.00 | 0.00 | 56 | 1015.9 |
| 20260901230255 | 83 | 240 | 0.9 | 1.7 | 0.00 | 0.00 | 0.00 | 56 | 1016.0 |
| 20260901225750 | 83 | 193 | 1.7 | 1.7 | 0.00 | 0.00 | 0.00 | 55 | 1016.1 |
| 20260901225244 | 84 | 175 | 0.0 | 2.6 | 0.00 | 0.00 | 0.00 | 56 | 1016.2 |
| 20260901224741 | 84 | 242 | 0.9 | 1.7 | 0.00 | 0.00 | 0.00 | 56 | 1016.1 |
| 20260901224236 | 84 | 225 | 1.7 | 2.6 | 0.00 | 0.00 | 0.00 | 55 | 1016.1 |
| 20260901223732 | 84 | 236 | 0.9 | 2.6 | 0.00 | 0.00 | 0.00 | 55 | 1016.1 |
| 20260901223227 | 85 | 204 | 0.9 | 2.6 | 0.00 | 0.00 | 0.00 | 55 | 1016.3 |
| 20260901222723 | 85 | 179 | 0.9 | 1.7 | 0.00 | 0.00 | 0.00 | 54 | 1016.1 |
| 20260901222219 | 85 | 191 | 2.6 | 4.3 | 0.00 | 0.00 | 0.00 | 52 | 1016.1 |
| 20260901221715 | 85 | 271 | 2.6 | 2.6 | 0.00 | 0.00 | 0.00 | 50 | 1016.2 |
| 20260901221211 | 85 | 167 | 2.6 | 2.6 | 0.00 | 0.00 | 0.00 | 49 | 1016.2 |
| 20260901220709 | 85 | 245 | 4.3 | 5.2 | 0.00 | 0.00 | 0.00 | 48 | 1016.0 |
| 20260901220209 | 85 | 213 | 2.6 | 4.3 | 0.00 | 0.00 | 0.00 | 48 | 1016.0 |
| 20260901215708 | 85 | 215 | 0.9 | 2.6 | 0.00 | 0.00 | 0.00 | 49 | 1016.2 |
| 20260901215202 | 86 | 228 | 1.7 | 2.6 | 0.00 | 0.00 | 0.00 | 47 | 1016.0 |
| 20260901214700 | 86 | 200 | 0.9 | 5.2 | 0.00 | 0.00 | 0.00 | 47 | 1015.8 |
| 20260901214154 | 86 | 165 | 3.5 | 6.1 | 0.00 | 0.00 | 0.00 | 44 | 1016.0 |
| 20260901213649 | 86 | 238 | 1.7 | 2.6 | 0.00 | 0.00 | 0.00 | 43 | 1016.0 |
| 20260901213144 | 86 | 196 | 0.0 | 4.3 | 0.00 | 0.00 | 0.00 | 42 | 1015.8 |
| 20260901212643 | 86 | 160 | 2.6 | 6.1 | 0.00 | 0.00 | 0.00 | 43 | 1016.0 |
| 20260901212139 | 86 | 206 | 2.6 | 5.2 | 0.00 | 0.00 | 0.00 | 43 | 1015.6 |
| 20260901211634 | 86 | 172 | 0.9 | 5.2 | 0.00 | 0.00 | 0.00 | 45 | 1015.8 |
| 20260901211131 | 87 | 178 | 0.9 | 2.6 | 0.00 | 0.00 | 0.00 | 45 | 1015.9 |
| 20260901210626 | 87 | 214 | 0.0 | 1.7 | 0.00 | 0.00 | 0.00 | 44 | 1015.7 |
| 20260901210122 | 87 | 197 | 0.9 | 4.3 | 0.00 | 0.00 | 0.00 | 45 | 1015.9 |
| 20260901205617 | 87 | 167 | 0.9 | 2.6 | 0.00 | 0.00 | 0.00 | 46 | 1015.8 |
| 20260901205111 | 87 | 232 | 2.6 | 6.1 | 0.00 | 0.00 | 0.00 | 44 | 1016.1 |
| 20260901204607 | 89 | 215 | 1.7 | 5.2 | 0.00 | 0.00 | 0.00 | 43 | 1016.2 |
| 20260901204102 | 88 | 183 | 0.0 | 4.3 | 0.00 | 0.00 | 0.00 | 44 | 1016.1 |
| 20260901203602 | 88 | 198 | 3.5 | 6.1 | 0.00 | 0.00 | 0.00 | 44 | 1016.2 |
| 20260901203057 | 89 | 227 | 0.9 | 5.2 | 0.00 | 0.00 | 0.00 | 43 | 1016.4 |
| 20260901202556 | 88 | 204 | 2.6 | 6.1 | 0.00 | 0.00 | 0.00 | 43 | 1016.4 |
| 20260901202053 | 88 | 168 | 1.7 | 5.2 | 0.00 | 0.00 | 0.00 | 44 | 1016.2 |
| 20260901201548 | 88 | 222 | 3.5 | 5.2 | 0.00 | 0.00 | 0.00 | 44 | 1016.1 |
| 20260901201047 | 87 | 175 | 0.0 | 1.7 | 0.00 | 0.00 | 0.00 | 46 | 1016.2 |
| 20260901200547 | 87 | 266 | 4.3 | 5.2 | 0.00 | 0.00 | 0.00 | 44 | 1016.4 |
| 20260901200042 | 87 | 131 | 0.9 | 4.3 | 0.00 | 0.00 | 0.00 | 45 | 1016.3 |
| 20260901195539 | 87 | 164 | 0.0 | 2.6 | 0.00 | 0.00 | 0.00 | 47 | 1016.5 |
| 20260901195034 | 87 | 169 | 1.7 | 2.6 | 0.00 | 0.00 | 0.00 | 46 | 1016.4 |
| 20260901194529 | 87 | 197 | 0.9 | 2.6 | 0.00 | 0.00 | 0.00 | 44 | 1016.2 |
| 20260901194025 | 88 | 198 | 0.0 | 1.7 | 0.00 | 0.00 | 0.00 | 45 | 1016.5 |
| 20260901193524 | 88 | 118 | 1.7 | 1.7 | 0.00 | 0.00 | 0.00 | 44 | 1016.3 |
| 20260901193020 | 87 | 223 | 0.9 | 1.7 | 0.00 | 0.00 | 0.00 | 46 | 1016.4 |
| 20260901192514 | 87 | 235 | 2.6 | 2.6 | 0.00 | 0.00 | 0.00 | 46 | 1016.7 |
| 20260901192011 | 87 | 205 | 0.0 | 5.2 | 0.00 | 0.00 | 0.00 | 47 | 1016.7 |
| 20260901191506 | 87 | 133 | 1.7 | 2.6 | 0.00 | 0.00 | 0.00 | 46 | 1016.7 |
| 20260901191002 | 87 | 195 | 1.7 | 4.3 | 0.00 | 0.00 | 0.00 | 45 | 1016.7 |
| 20260901190457 | 87 | 165 | 0.0 | 1.7 | 0.00 | 0.00 | 0.00 | 47 | 1016.5 |
| 20260901185955 | 88 | 138 | 0.9 | 5.2 | 0.00 | 0.00 | 0.00 | 46 | 1016.5 |
| 20260901185449 | 89 | 226 | 0.9 | 5.2 | 0.00 | 0.00 | 0.00 | 45 | 1016.4 |
| 20260901184949 | 89 | 173 | 0.9 | 1.7 | 0.00 | 0.00 | 0.00 | 46 | 1016.6 |
| 20260901184444 | 89 | 186 | 0.9 | 4.3 | 0.00 | 0.00 | 0.00 | 46 | 1016.5 |
| 20260901183939 | 88 | 194 | 3.5 | 5.2 | 0.00 | 0.00 | 0.00 | 47 | 1016.8 |
| 20260901183439 | 87 | 311 | 0.9 | 2.6 | 0.00 | 0.00 | 0.00 | 48 | 1016.8 |
| 20260901182935 | 87 | 177 | 3.5 | 4.3 | 0.00 | 0.00 | 0.00 | 46 | 1017.0 |
| 20260901182431 | 86 | 265 | 0.0 | 2.6 | 0.00 | 0.00 | 0.00 | 49 | 1016.8 |
| 20260901181925 | 86 | 138 | 0.0 | 0.9 | 0.00 | 0.00 | 0.00 | 50 | 1017.0 |
| 20260901181420 | 86 | 235 | 3.5 | 7.0 | 0.00 | 0.00 | 0.00 | 49 | 1017.0 |
| 20260901180919 | 86 | 248 | 1.7 | 4.3 | 0.00 | 0.00 | 0.00 | 51 | 1017.2 |
| 20260901180418 | 87 | 121 | 0.9 | 4.3 | 0.00 | 0.00 | 0.00 | 50 | 1017.2 |
| 20260901175917 | 86 | 181 | 2.6 | 2.6 | 0.00 | 0.00 | 0.00 | 50 | 1017.3 |
| 20260901175412 | 85 | 174 | 0.9 | 1.7 | 0.00 | 0.00 | 0.00 | 52 | 1017.5 |
| 20260901174907 | 86 | 163 | 0.9 | 0.9 | 0.00 | 0.00 | 0.00 | 52 | 1017.3 |
| 20260901174403 | 86 | 140 | 0.9 | 4.3 | 0.00 | 0.00 | 0.00 | 51 | 1017.5 |
| 20260901173858 | 86 | 173 | 0.9 | 1.7 | 0.00 | 0.00 | 0.00 | 52 | 1017.6 |
| 20260901173353 | 86 | 124 | 0.0 | 1.7 | 0.00 | 0.00 | 0.00 | 53 | 1017.4 |
| 20260901172849 | 86 | 165 | 1.7 | 4.3 | 0.00 | 0.00 | 0.00 | 52 | 1017.5 |
| 20260901172349 | 85 | 134 | 0.9 | 4.3 | 0.00 | 0.00 | 0.00 | 53 | 1017.6 |
| 20260901171847 | 86 | 160 | 2.6 | 5.2 | 0.00 | 0.00 | 0.00 | 52 | 1017.8 |
| 20260901171346 | 85 | 230 | 0.9 | 2.6 | 0.00 | 0.00 | 0.00 | 52 | 1017.5 |
| 20260901170845 | 85 | 211 | 2.6 | 2.6 | 0.00 | 0.00 | 0.00 | 52 | 1017.6 |
| 20260901170340 | 85 | 195 | 2.6 | 5.2 | 0.00 | 0.00 | 0.00 | 54 | 1017.7 |
| 20260901165834 | 85 | 196 | 3.5 | 4.3 | 0.00 | 0.00 | 0.00 | 55 | 1017.6 |
| 20260901165328 | 85 | 237 | 1.7 | 2.6 | 0.00 | 0.00 | 0.00 | 55 | 1017.7 |
| 20260901164825 | 85 | 226 | 1.7 | 2.6 | 0.00 | 0.00 | 0.00 | 56 | 1017.6 |
| 20260901164320 | 85 | 121 | 0.0 | 1.7 | 0.00 | 0.00 | 0.00 | 57 | 1017.5 |
| 20260901163814 | 84 | 208 | 0.9 | 1.7 | 0.00 | 0.00 | 0.00 | 56 | 1017.6 |
| 20260901163309 | 84 | 112 | 0.9 | 1.7 | 0.00 | 0.00 | 0.00 | 58 | 1017.9 |
| 20260901162803 | 84 | 175 | 0.9 | 1.7 | 0.00 | 0.00 | 0.00 | 58 | 1017.7 |
| 20260901162306 | 84 | 170 | 0.0 | 0.9 | 0.00 | 0.00 | 0.00 | 58 | 1017.5 |
| 20260901161802 | 82 | 114 | 0.0 | 1.7 | 0.00 | 0.00 | 0.00 | 60 | 1017.4 |
| 20260901161256 | 83 | 202 | 0.9 | 2.6 | 0.00 | 0.00 | 0.00 | 58 | 1017.3 |
| 20260901160752 | 82 | 136 | 0.0 | 0.9 | 0.00 | 0.00 | 0.00 | 61 | 1017.5 |
| 20260901160248 | 81 | 103 | 0.0 | 1.7 | 0.00 | 0.00 | 0.00 | 63 | 1017.5 |
| 20260901155747 | 80 | 191 | 2.6 | 4.3 | 0.00 | 0.00 | 0.00 | 63 | 1017.7 |
| 20260901155242 | 80 | 153 | 0.9 | 0.9 | 0.00 | 0.00 | 0.00 | 65 | 1017.5 |
| 20260901154738 | 80 | 156 | 0.9 | 1.7 | 0.00 | 0.00 | 0.00 | 64 | 1017.6 |
| 20260901154232 | 79 | 241 | 2.6 | 4.3 | 0.00 | 0.00 | 0.00 | 64 | 1017.8 |
| 20260901153728 | 79 | 202 | 3.5 | 5.2 | 0.00 | 0.00 | 0.00 | 64 | 1017.8 |
| 20260901153227 | 79 | 117 | 2.6 | 2.6 | 0.00 | 0.00 | 0.00 | 64 | 1017.7 |
| 20260901152721 | 79 | 166 | 1.7 | 4.3 | 0.00 | 0.00 | 0.00 | 65 | 1017.8 |
| 20260901152220 | 78 | 32 | 0.9 | 1.7 | 0.00 | 0.00 | 0.00 | 65 | 1017.8 |
| 20260901151715 | 78 | 220 | 1.7 | 2.6 | 0.00 | 0.00 | 0.00 | 66 | 1017.9 |